GPS BIIRM-4 (PRN 15)

Last updated on Thu Dec 26 2024 00:03:09 GMT+0000 (Coordinated Universal Time)

1 32260U 07047A 24360.26068951 -.00000025 00000+0 00000+0 0 9999 2 32260 53.7176 102.3355 0159241 79.2597 282.5175 2.00555480126002
UTC large
Height (km)
Speed (km/s)
/
Latitude / Longitude
Inclination (degrees)
Orbital Period (minutes)
Azimuth
Elevation
Range (km)
Doppler Factor

Next 0 passes for location: London (51.5072 / 0.1276)

Sorry there are no passes over London.